Погода в Белаге

Малайзия     3°01′15″N   113°48′46″E
темп.,
°C
ветер,
м/с
пор.,
м/с
влажн.,
%
обл.,
%
осадки,
мм/ч
давл.,
гПа
погр.,
м
13 июня, вс
вс1323:00+22в1299100 6.8 101380
02:00+22юв1299100 6.9 101149
05:00+21вюв1198100 0.0 101141
08:00+21вюв129790 0.0 101255
11:00+31вюв1253100 0.0 1011894
14:00+29в1264100 0.0 1008424
17:00+28ссв127189 0.0 1007263
20:00+25юв118598 0.1 101012
14 июня, пн
пн1423:00+24юв118899 0.4 101222
02:00+22вюв1198100 1.8 101026
05:00+21юв1197100 0.0 101014
08:00+22юв1195100 0.0 101252
11:00+30зюз015688 0.0 1011791
14:00+31св115198 0.0 10081196
17:00+28с1272100 0.0 100649
20:00+24ссв0090100 0.0 100911
15 июня, вт
вт1523:00+23вюв119384 0.0 101012
02:00+23юв0090100 0.1 100819
05:00+23ююв119192 0.0 100825
08:00+25юв118097 0.0 1010209
11:00+32юз015331 0.0 10101194
14:00+33сз2149100 0.1 10061944
17:00+28сз25787 0.6 1006346
20:00+23юв0099100 6.5 100912
16 июня, ср
ср1623:00+23юв1199100 6.5 101127
02:00+22в11100100 9.8 101034
05:00+22вюв1110099 4.9 101040
08:00+23юв119888 4.9 101265
11:00+31з115525 0.0 10111305
14:00+31с115234 0.0 10081471
17:00+30з136681 0.3 1008499
20:00+23всв1197100 2.3 101111
17 июня, чт
чт1723:00+23в11100100 5.6 101259
02:00+23вюв11100100 6.8 101125
05:00+22юв119998 0.0 101123
08:00+24ююв119643 0.0 1013157
11:00+31зюз115719 0.0 10111269
14:00+28вюв118385 2.9 1009672
17:00+26вюв1195100 4.4 100816
20:00+23ссв009843 5.3 101111